Weather History for Pawtucket, RI

Change the Weather History Date:

Sunday, August 17, 2014

  Actual Average Record
Temperature  
Mean Temperature 68 °F -  
Max Temperature 77 °F 76 °F 91 °F (2002)
Min Temperature 59 °F 59 °F 53 °F (2013)
Cooling Degree Days 3    
Growing Degree Days 18 (Base 50)    
Moisture  
Dew Point 55 °F    
Average Humidity 66    
Maximum Humidity 82    
Minimum Humidity 50    
Precipitation  
Precipitation 0.00 in - - ()
Sea Level Pressure  
Sea Level Pressure 29.84 in    
Wind  
Wind Speed 3 mph (WNW)    
Max Wind Speed 10 mph    
Max Gust Speed 16 mph    
Visibility 10 miles    
Events      
Averages and records for this station are not official NWS values.
T = Trace of Precipitation, MM = Missing Value Source: NWS Daily Summary

Daily Weather History Graph

Daily Weather History Graph

Search for Another Location

Airport:

Trip Planner

Search our weather history database for the weather conditions in past years. The results will help you decide how hot, cold, wet, or windy it might be!

Date:

Astronomy

Aug. 17, 2014 Rise Set
Actual Time 5:56 AM EDT 7:43 PM EDT
Civil Twilight 5:26 AM EDT 8:13 PM EDT
Nautical Twilight 4:49 AM EDT 8:49 PM EDT
Astronomical Twilight 4:10 AM EDT 9:28 PM EDT
Moon No Moon Rise 1:46 PM EDT (8/17)
Length of Visible Light 14h 46m
Length of Day
13h 47m
Waning Gibbous, 48% of the Moon is Illuminated
Aug 17
Waning Gibbous
Aug 25
New
Sep 2
First Quarter
Sep 8
Full
Sep 15
Last Quarter

Hourly Weather History & Observations

Time (EDT) Temp. Dew Point Humidity Pressure Visibility Wind Dir Wind Speed Gust Speed Precip Events Conditions
12:15 AM 60.8 °F 53.6 °F 77% 29.93 in 10.0 mi Calm Calm - N/A   Clear
12:35 AM 60.8 °F 53.6 °F 77% 29.93 in 10.0 mi Calm Calm - N/A   Clear
12:55 AM 60.8 °F 53.6 °F 77% 29.92 in 10.0 mi Calm Calm - N/A   Clear
1:15 AM 62.6 °F 55.4 °F 77% 29.91 in 10.0 mi Calm Calm - N/A   Clear
1:35 AM 62.6 °F 55.4 °F 77% 29.90 in 10.0 mi Calm Calm - N/A   Clear
1:55 AM 62.6 °F 55.4 °F 77% 29.89 in 10.0 mi Calm Calm - N/A   Clear
2:15 AM 60.8 °F 55.4 °F 82% 29.89 in 10.0 mi Calm Calm - N/A   Clear
2:35 AM 62.6 °F 55.4 °F 77% 29.88 in 10.0 mi Calm Calm - N/A   Partly Cloudy
2:55 AM 60.8 °F 55.4 °F 82% 29.88 in 10.0 mi Calm Calm - N/A   Mostly Cloudy
3:15 AM 62.6 °F 55.4 °F 77% 29.87 in 10.0 mi Calm Calm - N/A   Overcast
3:35 AM 60.8 °F 55.4 °F 82% 29.87 in 10.0 mi Calm Calm - N/A   Mostly Cloudy
3:55 AM 62.6 °F 55.4 °F 77% 29.87 in 10.0 mi Calm Calm - N/A   Overcast
4:15 AM 62.6 °F 55.4 °F 77% 29.87 in 10.0 mi Calm Calm - N/A   Overcast
4:35 AM 60.8 °F 55.4 °F 82% 29.87 in 8.0 mi Calm Calm - N/A   Overcast
4:55 AM 60.8 °F 55.4 °F 82% 29.86 in 6.0 mi Calm Calm - N/A   Mostly Cloudy
5:15 AM 60.8 °F 55.4 °F 82% 29.86 in 9.0 mi Calm Calm - N/A   Partly Cloudy
5:35 AM 60.8 °F 55.4 °F 82% 29.86 in 7.0 mi Calm Calm - N/A   Partly Cloudy
5:55 AM 62.6 °F 55.4 °F 77% 29.86 in 8.0 mi SSW 3.5 mph - N/A   Scattered Clouds
6:15 AM 62.6 °F 55.4 °F 77% 29.85 in 8.0 mi Calm Calm - N/A   Mostly Cloudy
6:35 AM 60.8 °F 55.4 °F 82% 29.86 in 5.0 mi Calm Calm - N/A   Mostly Cloudy
6:55 AM 60.8 °F 55.4 °F 82% 29.86 in 6.0 mi Calm Calm - N/A   Mostly Cloudy
7:15 AM 62.6 °F 57.2 °F 82% 29.86 in 7.0 mi Calm Calm - N/A   Scattered Clouds
7:35 AM 62.6 °F 57.2 °F 82% 29.86 in 10.0 mi Calm Calm - N/A   Clear
7:55 AM 64.4 °F 57.2 °F 77% 29.86 in 10.0 mi Calm Calm - N/A   Partly Cloudy
8:15 AM 66.2 °F 57.2 °F 73% 29.86 in 10.0 mi Calm Calm - N/A   Partly Cloudy
8:35 AM 68.0 °F 57.2 °F 68% 29.85 in 10.0 mi SW 4.6 mph - N/A   Clear
8:55 AM 69.8 °F 57.2 °F 64% 29.85 in 10.0 mi WSW 6.9 mph - N/A   Clear
9:15 AM 71.6 °F 57.2 °F 60% 29.84 in 10.0 mi SW 3.5 mph - N/A   Clear
9:35 AM 73.4 °F 55.4 °F 53% 29.84 in 10.0 mi WSW 8.1 mph - N/A   Clear
9:55 AM 73.4 °F 55.4 °F 53% 29.84 in 10.0 mi West 8.1 mph - N/A   Partly Cloudy
10:15 AM 73.4 °F 55.4 °F 53% 29.84 in 10.0 mi WNW 10.4 mph - N/A   Clear
10:35 AM 73.4 °F 55.4 °F 53% 29.83 in 10.0 mi West 9.2 mph - N/A   Scattered Clouds
10:55 AM 71.6 °F 55.4 °F 57% 29.83 in 10.0 mi West 6.9 mph - N/A   Mostly Cloudy
11:15 AM 73.4 °F 57.2 °F 57% 29.83 in 10.0 mi West 6.9 mph - N/A   Mostly Cloudy
11:35 AM 73.4 °F 57.2 °F 57% 29.82 in 10.0 mi SSW 3.5 mph - N/A   Mostly Cloudy
11:55 AM 73.4 °F 57.2 °F 57% 29.82 in 10.0 mi SW 3.5 mph - N/A   Mostly Cloudy
12:15 PM 73.4 °F 57.2 °F 57% 29.81 in 10.0 mi WSW 5.8 mph - N/A   Overcast
12:35 PM 71.6 °F 57.2 °F 60% 29.81 in 10.0 mi West 6.9 mph - N/A   Overcast
12:55 PM 71.6 °F 57.2 °F 60% 29.81 in 10.0 mi WSW 4.6 mph - N/A   Overcast
1:15 PM 73.4 °F 57.2 °F 57% 29.81 in 10.0 mi WSW 4.6 mph - N/A   Overcast
1:35 PM 73.4 °F 57.2 °F 57% 29.81 in 10.0 mi WNW 9.2 mph - N/A   Overcast
1:55 PM 73.4 °F 57.2 °F 57% 29.80 in 10.0 mi West 4.6 mph - N/A   Overcast
2:15 PM 75.2 °F 57.2 °F 53% 29.80 in 10.0 mi WSW 4.6 mph - N/A   Overcast
2:35 PM 75.2 °F 57.2 °F 53% 29.79 in 10.0 mi Calm Calm - N/A   Mostly Cloudy
2:55 PM 75.2 °F 59.0 °F 57% 29.79 in 10.0 mi West 8.1 mph - N/A   Mostly Cloudy
3:15 PM 75.2 °F 59.0 °F 57% 29.79 in 10.0 mi NW 4.6 mph - N/A   Mostly Cloudy
3:35 PM 75.2 °F 57.2 °F 53% 29.79 in 10.0 mi WNW 10.4 mph 16.1 mph N/A   Mostly Cloudy
3:55 PM 77.0 °F 57.2 °F 50% 29.79 in 10.0 mi NW 9.2 mph - N/A   Scattered Clouds
4:15 PM 75.2 °F 59.0 °F 57% 29.79 in 10.0 mi NW 8.1 mph - N/A   Mostly Cloudy
4:35 PM 73.4 °F 57.2 °F 57% 29.79 in 10.0 mi WNW 4.6 mph - N/A   Overcast
4:55 PM 75.2 °F 57.2 °F 53% 29.79 in 10.0 mi WNW 9.2 mph - N/A   Overcast
5:15 PM 75.2 °F 55.4 °F 50% 29.79 in 10.0 mi WNW 8.1 mph - N/A   Mostly Cloudy
5:35 PM 75.2 °F 55.4 °F 50% 29.79 in 10.0 mi WNW 10.4 mph - N/A   Partly Cloudy
6:15 PM 71.6 °F 55.4 °F 57% 29.80 in 10.0 mi WNW 4.6 mph - N/A   Overcast
6:35 PM 73.4 °F 55.4 °F 53% 29.80 in 10.0 mi NW 4.6 mph - N/A   Overcast
6:55 PM 69.8 °F 55.4 °F 60% 29.80 in 10.0 mi WNW 4.6 mph - N/A   Scattered Clouds
7:15 PM 69.8 °F 55.4 °F 60% 29.81 in 10.0 mi NW 6.9 mph - N/A   Partly Cloudy
7:35 PM 69.8 °F 55.4 °F 60% 29.81 in 10.0 mi NW 5.8 mph - N/A   Scattered Clouds
7:55 PM 68.0 °F 53.6 °F 60% 29.82 in 10.0 mi NW 6.9 mph - N/A   Partly Cloudy
8:15 PM 66.2 °F 53.6 °F 64% 29.83 in 10.0 mi NNW 6.9 mph - N/A   Clear
8:35 PM 64.4 °F 51.8 °F 64% 29.84 in 10.0 mi NW 5.8 mph - N/A   Clear
8:55 PM 64.4 °F 51.8 °F 64% 29.85 in 10.0 mi NW 3.5 mph - N/A   Clear
9:15 PM 62.6 °F 51.8 °F 68% 29.85 in 10.0 mi NW 4.6 mph - N/A   Scattered Clouds
9:35 PM 62.6 °F 51.8 °F 68% 29.85 in 10.0 mi NW 3.5 mph - N/A   Mostly Cloudy
9:55 PM 62.6 °F 50.0 °F 63% 29.85 in 10.0 mi NNW 3.5 mph - N/A   Scattered Clouds
10:15 PM 60.8 °F 50.0 °F 68% 29.85 in 10.0 mi NNW 3.5 mph - N/A   Scattered Clouds
10:35 PM 60.8 °F 50.0 °F 68% 29.85 in 10.0 mi NW 3.5 mph - N/A   Partly Cloudy
10:55 PM 59.0 °F 48.2 °F 67% 29.85 in 10.0 mi WNW 4.6 mph - N/A   Clear
11:15 PM 60.8 °F 48.2 °F 63% 29.86 in 10.0 mi WNW 5.8 mph - N/A   Clear
11:35 PM 60.8 °F 48.2 °F 63% 29.85 in 10.0 mi NW 4.6 mph - N/A   Clear
11:55 PM 59.0 °F 48.2 °F 67% 29.85 in 10.0 mi WNW 5.8 mph - N/A   Clear